contact:dominique.lefevre@mio.osupytheas.fr, maurice.libes@osupytheas.fr, didier.mallarino@osupytheas.fr
Project:EMSO http://www.emso-fr.org/EMSO-France
Depth: 2436.0 m
Title:EMSO Ligure Ouest : Data MII capteur CSTAR
DateTime,Latitude,Longitude,Instrument_Serial,Reference_Counts,Signal_Counts,Corrected_Signal_raw_counts,Calculated_Beam_c_inverse_meters,Internal_thermistor_counts
DateTime,Latitude,Longitude,Instrument_Serial,Reference_Counts,Signal_Counts,Corrected_Signal_raw_counts,Calculated_Beam_c_inverse_meters,Internal_thermistor_counts
2023-03-28T00:02:44,42.805,6.029,CST-1368DR,4340,4657,11397,01.260,551
2023-03-28T00:05:45,42.805,6.029,CST-1368DR,4340,4669,11425,01.250,551
2023-03-28T00:08:47,42.805,6.029,CST-1368DR,4340,4670,11428,01.249,551
2023-03-28T00:11:48,42.805,6.029,CST-1368DR,4340,4663,11411,01.255,551
2023-03-28T00:14:50,42.805,6.029,CST-1368DR,4340,4681,11455,01.239,551
2023-03-28T00:17:52,42.805,6.029,CST-1368DR,4340,4666,11418,01.252,551
2023-03-28T00:20:53,42.805,6.029,CST-1368DR,4340,4669,11425,01.250,551
2023-03-28T00:23:55,42.805,6.029,CST-1368DR,4340,4665,11415,01.253,551
2023-03-28T00:26:56,42.805,6.029,CST-1368DR,4340,4661,11407,01.256,551
2023-03-28T00:29:58,42.805,6.029,CST-1368DR,4340,4663,11411,01.255,551
2023-03-28T00:33:00,42.805,6.029,CST-1368DR,4340,4676,11442,01.244,551
2023-03-28T00:36:01,42.805,6.029,CST-1368DR,4340,4675,11441,01.244,551
2023-03-28T00:39:03,42.805,6.029,CST-1368DR,4340,4669,11426,01.250,551
2023-03-28T00:42:04,42.805,6.029,CST-1368DR,4340,4676,11442,01.244,551
2023-03-28T00:45:06,42.805,6.029,CST-1368DR,4340,4664,11413,01.254,551
2023-03-28T00:48:07,42.805,6.029,CST-1368DR,4340,4667,11420,01.252,551
2023-03-28T00:51:09,42.805,6.029,CST-1368DR,4340,4671,11431,01.248,551
2023-03-28T00:54:11,42.805,6.029,CST-1368DR,4340,4674,11439,01.245,551
2023-03-28T00:57:12,42.805,6.029,CST-1368DR,4340,4678,11447,01.242,551
2023-03-28T01:00:14,42.805,6.029,CST-1368DR,4340,4664,11414,01.254,551
2023-03-28T01:03:15,42.805,6.029,CST-1368DR,4340,4657,11397,01.260,551
2023-03-28T01:06:17,42.805,6.029,CST-1368DR,4340,4682,11457,01.239,551
2023-03-28T01:09:18,42.805,6.029,CST-1368DR,4340,4669,11425,01.250,551
2023-03-28T01:12:20,42.805,6.029,CST-1368DR,4340,4665,11416,01.253,551
2023-03-28T01:15:22,42.805,6.029,CST-1368DR,4340,4667,11422,01.251,551
2023-03-28T01:18:23,42.805,6.029,CST-1368DR,4340,4664,11413,01.254,551
2023-03-28T01:21:25,42.805,6.029,CST-1368DR,4340,4658,11398,01.259,551
2023-03-28T01:24:26,42.805,6.029,CST-1368DR,4340,4666,11419,01.252,551
2023-03-28T01:27:28,42.805,6.029,CST-1368DR,4340,4661,11407,01.256,551
2023-03-28T01:30:29,42.805,6.029,CST-1368DR,4340,4668,11422,01.251,551
2023-03-28T01:33:31,42.805,6.029,CST-1368DR,4340,4668,11423,01.251,551
2023-03-28T01:36:33,42.805,6.029,CST-1368DR,4340,4665,11416,01.253,551
2023-03-28T01:39:34,42.805,6.029,CST-1368DR,4340,4670,11428,01.249,551
2023-03-28T01:42:36,42.805,6.029,CST-1368DR,4340,4662,11408,01.256,551
2023-03-28T01:45:37,42.805,6.029,CST-1368DR,4340,4657,11397,01.260,551
2023-03-28T01:48:39,42.805,6.029,CST-1368DR,4340,4660,11403,01.258,551
2023-03-28T01:51:41,42.805,6.029,CST-1368DR,4340,4673,11436,01.246,551
2023-03-28T01:54:42,42.805,6.029,CST-1368DR,4340,4669,11425,01.250,551
2023-03-28T01:57:44,42.805,6.029,CST-1368DR,4340,4667,11420,01.252,551
2023-03-28T02:00:45,42.805,6.029,CST-1368DR,4340,4672,11433,01.247,551
2023-03-28T02:03:47,42.805,6.029,CST-1368DR,4340,4670,11427,01.249,551
2023-03-28T02:06:48,42.805,6.029,CST-1368DR,4340,4675,11441,01.244,551
2023-03-28T02:09:50,42.805,6.029,CST-1368DR,4340,4677,11445,01.243,551
2023-03-28T02:12:52,42.805,6.029,CST-1368DR,4340,4667,11420,01.252,551
2023-03-28T02:15:53,42.805,6.029,CST-1368DR,4340,4660,11403,01.258,551
2023-03-28T02:18:55,42.805,6.029,CST-1368DR,4340,4663,11412,01.255,551
2023-03-28T02:21:56,42.805,6.029,CST-1368DR,4340,4672,11432,01.248,551
2023-03-28T02:24:58,42.805,6.029,CST-1368DR,4340,4666,11417,01.253,551
2023-03-28T02:27:59,42.805,6.029,CST-1368DR,4340,4653,11386,01.264,551
2023-03-28T02:31:01,42.805,6.029,CST-1368DR,4340,4660,11403,01.258,551
2023-03-28T02:34:03,42.805,6.029,CST-1368DR,4340,4669,11426,01.250,551
2023-03-28T02:37:04,42.805,6.029,CST-1368DR,4340,4663,11411,01.255,551
2023-03-28T02:40:06,42.805,6.029,CST-1368DR,4340,4650,11378,01.266,551
2023-03-28T02:43:07,42.805,6.029,CST-1368DR,4340,4661,11406,01.257,551
2023-03-28T02:46:09,42.805,6.029,CST-1368DR,4340,4667,11422,01.251,551
2023-03-28T02:49:11,42.805,6.029,CST-1368DR,4340,4657,11395,01.260,551
2023-03-28T02:52:12,42.805,6.029,CST-1368DR,4340,4664,11414,01.254,551
2023-03-28T02:55:14,42.805,6.029,CST-1368DR,4340,4669,11425,01.250,551
2023-03-28T02:58:15,42.805,6.029,CST-1368DR,4340,4673,11435,01.246,551
2023-03-28T03:01:17,42.805,6.029,CST-1368DR,4340,4665,11417,01.253,551
2023-03-28T03:04:18,42.805,6.029,CST-1368DR,4340,4660,11403,01.258,551
2023-03-28T03:07:20,42.805,6.029,CST-1368DR,4340,4662,11409,01.256,551
2023-03-28T03:10:22,42.805,6.029,CST-1368DR,4340,4669,11426,01.250,551
2023-03-28T03:13:23,42.805,6.029,CST-1368DR,4340,4662,11409,01.256,551
2023-03-28T03:16:25,42.805,6.029,CST-1368DR,4340,4671,11430,01.248,551
2023-03-28T03:19:26,42.805,6.029,CST-1368DR,4340,4665,11416,01.253,551
2023-03-28T03:22:28,42.805,6.029,CST-1368DR,4340,4662,11409,01.256,551
2023-03-28T03:25:29,42.805,6.029,CST-1368DR,4340,4672,11433,01.247,551
2023-03-28T03:28:31,42.805,6.029,CST-1368DR,4340,4654,11390,01.262,551
2023-03-28T03:31:33,42.805,6.029,CST-1368DR,4340,4660,11403,01.258,552
2023-03-28T03:34:34,42.805,6.029,CST-1368DR,4340,4659,11402,01.258,551
2023-03-28T03:37:36,42.805,6.029,CST-1368DR,4340,4664,11413,01.254,551
2023-03-28T03:40:37,42.805,6.029,CST-1368DR,4340,4662,11408,01.256,551
2023-03-28T03:43:39,42.805,6.029,CST-1368DR,4340,4674,11438,01.245,551
2023-03-28T03:46:41,42.805,6.029,CST-1368DR,4340,4663,11410,01.255,551
2023-03-28T03:49:42,42.805,6.029,CST-1368DR,4340,4658,11399,01.259,551
2023-03-28T03:52:44,42.805,6.029,CST-1368DR,4340,4661,11407,01.256,551
2023-03-28T03:55:45,42.805,6.029,CST-1368DR,4340,4663,11411,01.255,551
2023-03-28T03:58:47,42.805,6.029,CST-1368DR,4340,4668,11423,01.251,551
2023-03-28T04:01:48,42.805,6.029,CST-1368DR,4340,4657,11397,01.260,551
2023-03-28T04:04:50,42.805,6.029,CST-1368DR,4340,4669,11426,01.250,551
2023-03-28T04:07:52,42.805,6.029,CST-1368DR,4340,4686,11468,01.235,551
2023-03-28T04:10:53,42.805,6.029,CST-1368DR,4340,4685,11464,01.236,551
2023-03-28T04:13:55,42.805,6.029,CST-1368DR,4340,4672,11433,01.247,551
2023-03-28T04:16:56,42.805,6.029,CST-1368DR,4340,4675,11439,01.245,551
2023-03-28T04:19:58,42.805,6.029,CST-1368DR,4340,4672,11434,01.247,551
2023-03-28T04:22:59,42.805,6.029,CST-1368DR,4340,4675,11441,01.244,551
2023-03-28T04:26:01,42.805,6.029,CST-1368DR,4340,4669,11425,01.250,551
2023-03-28T04:29:03,42.805,6.029,CST-1368DR,4340,4680,11452,01.241,551
2023-03-28T04:32:05,42.805,6.029,CST-1368DR,4340,4668,11424,01.250,551
2023-03-28T04:35:07,42.805,6.029,CST-1368DR,4340,4657,11395,01.260,551
2023-03-28T04:38:08,42.805,6.029,CST-1368DR,4340,4665,11417,01.253,551
2023-03-28T04:41:10,42.805,6.029,CST-1368DR,4340,4669,11425,01.250,551
2023-03-28T04:44:12,42.805,6.029,CST-1368DR,4340,4664,11414,01.254,551
2023-03-28T04:47:13,42.805,6.029,CST-1368DR,4340,4657,11395,01.260,551
2023-03-28T04:50:15,42.805,6.029,CST-1368DR,4340,4653,11387,01.263,551
2023-03-28T04:53:16,42.805,6.029,CST-1368DR,4340,4662,11409,01.256,551
2023-03-28T04:56:18,42.805,6.029,CST-1368DR,4340,4662,11408,01.256,551
2023-03-28T04:59:19,42.805,6.029,CST-1368DR,4340,4666,11417,01.253,552
2023-03-28T05:02:21,42.805,6.029,CST-1368DR,4340,4672,11434,01.247,551
2023-03-28T05:05:23,42.805,6.029,CST-1368DR,4340,4663,11411,01.255,551
2023-03-28T05:08:24,42.805,6.029,CST-1368DR,4340,4658,11398,01.259,551
2023-03-28T05:11:26,42.805,6.029,CST-1368DR,4340,4665,11416,01.253,551
2023-03-28T05:14:27,42.805,6.029,CST-1368DR,4340,4663,11410,01.255,551
2023-03-28T05:17:29,42.805,6.029,CST-1368DR,4340,4661,11406,01.257,551
2023-03-28T05:20:31,42.805,6.029,CST-1368DR,4340,4655,11392,01.262,551
2023-03-28T05:23:32,42.805,6.029,CST-1368DR,4340,4656,11395,01.260,551
2023-03-28T05:26:34,42.805,6.029,CST-1368DR,4340,4658,11399,01.259,551
2023-03-28T05:29:35,42.805,6.029,CST-1368DR,4340,4663,11410,01.255,551
2023-03-28T05:32:37,42.805,6.029,CST-1368DR,4340,4667,11422,01.251,551
2023-03-28T05:35:38,42.805,6.029,CST-1368DR,4340,4658,11398,01.259,551
2023-03-28T05:38:40,42.805,6.029,CST-1368DR,4340,4668,11423,01.251,551
2023-03-28T05:41:42,42.805,6.029,CST-1368DR,4340,4667,11420,01.252,551
2023-03-28T05:44:43,42.805,6.029,CST-1368DR,4340,4667,11420,01.252,551
2023-03-28T05:47:45,42.805,6.029,CST-1368DR,4340,4664,11413,01.254,551
2023-03-28T05:50:46,42.805,6.029,CST-1368DR,4340,4662,11409,01.256,551
2023-03-28T05:53:48,42.805,6.029,CST-1368DR,4340,4669,11425,01.250,551
2023-03-28T05:56:50,42.805,6.029,CST-1368DR,4340,4665,11415,01.253,551
2023-03-28T05:59:51,42.805,6.029,CST-1368DR,4340,4667,11420,01.252,551
2023-03-28T06:02:53,42.805,6.029,CST-1368DR,4340,4657,11397,01.260,551
2023-03-28T06:05:54,42.805,6.029,CST-1368DR,4340,4666,11418,01.252,551
2023-03-28T06:08:56,42.805,6.029,CST-1368DR,4340,4664,11413,01.254,551
2023-03-28T06:11:57,42.805,6.029,CST-1368DR,4340,4662,11408,01.256,551
2023-03-28T06:14:59,42.805,6.029,CST-1368DR,4340,4669,11427,01.249,551
2023-03-28T06:18:01,42.805,6.029,CST-1368DR,4340,4659,11400,01.259,551
2023-03-28T06:21:02,42.805,6.029,CST-1368DR,4340,4664,11414,01.254,551
2023-03-28T06:24:04,42.805,6.029,CST-1368DR,4340,4653,11387,01.263,551
2023-03-28T06:27:05,42.805,6.029,CST-1368DR,4340,4668,11423,01.251,551
2023-03-28T06:30:07,42.805,6.029,CST-1368DR,4340,4665,11416,01.253,551
2023-03-28T06:33:08,42.805,6.029,CST-1368DR,4340,4668,11424,01.250,551
2023-03-28T06:36:10,42.805,6.029,CST-1368DR,4340,4666,11417,01.253,551
2023-03-28T06:39:12,42.805,6.029,CST-1368DR,4340,4661,11406,01.257,551
2023-03-28T06:42:13,42.805,6.029,CST-1368DR,4340,4659,11401,01.258,551
2023-03-28T06:45:15,42.805,6.029,CST-1368DR,4340,4669,11425,01.250,551
2023-03-28T06:48:16,42.805,6.029,CST-1368DR,4340,4661,11405,01.257,551
2023-03-28T06:51:18,42.805,6.029,CST-1368DR,4340,4653,11387,01.263,551
2023-03-28T06:54:19,42.805,6.029,CST-1368DR,4340,4638,11349,01.277,551
2023-03-28T06:57:21,42.805,6.029,CST-1368DR,4340,4653,11386,01.264,551
2023-03-28T07:00:23,42.805,6.029,CST-1368DR,4340,4668,11423,01.251,551
2023-03-28T07:03:24,42.805,6.029,CST-1368DR,4340,4661,11406,01.257,551
2023-03-28T07:06:26,42.805,6.029,CST-1368DR,4340,4657,11395,01.260,551
2023-03-28T07:09:27,42.805,6.029,CST-1368DR,4340,4651,11381,01.265,551
2023-03-28T07:12:29,42.805,6.029,CST-1368DR,4340,4661,11406,01.257,551
2023-03-28T07:15:31,42.805,6.029,CST-1368DR,4340,4655,11391,01.262,551
2023-03-28T07:18:32,42.805,6.029,CST-1368DR,4340,4651,11382,01.265,551
2023-03-28T07:21:34,42.805,6.029,CST-1368DR,4340,4662,11408,01.256,551
2023-03-28T07:24:35,42.805,6.029,CST-1368DR,4340,4653,11386,01.264,551
2023-03-28T07:27:37,42.805,6.029,CST-1368DR,4340,4642,11359,01.273,551
2023-03-28T07:30:38,42.805,6.029,CST-1368DR,4340,4656,11393,01.261,551
2023-03-28T07:33:40,42.805,6.029,CST-1368DR,4340,4647,11372,01.269,551
2023-03-28T07:36:42,42.805,6.029,CST-1368DR,4340,4653,11387,01.263,551
2023-03-28T07:39:43,42.805,6.029,CST-1368DR,4340,4654,11389,01.263,551
2023-03-28T07:42:45,42.805,6.029,CST-1368DR,4340,4664,11414,01.254,551
2023-03-28T07:45:46,42.805,6.029,CST-1368DR,4340,4647,11373,01.268,551
2023-03-28T07:48:48,42.805,6.029,CST-1368DR,4340,4661,11406,01.257,551
2023-03-28T07:51:50,42.805,6.029,CST-1368DR,4340,4644,11364,01.271,551
2023-03-28T07:54:51,42.805,6.029,CST-1368DR,4340,4648,11374,01.268,551
2023-03-28T07:57:53,42.805,6.029,CST-1368DR,4340,4656,11394,01.261,551
2023-03-28T08:00:54,42.805,6.029,CST-1368DR,4340,4670,11427,01.249,551
2023-03-28T08:03:56,42.805,6.029,CST-1368DR,4340,4660,11404,01.257,551
2023-03-28T08:06:57,42.805,6.029,CST-1368DR,4340,4665,11416,01.253,551
2023-03-28T08:09:59,42.805,6.029,CST-1368DR,4340,4655,11392,01.262,551
2023-03-28T08:13:01,42.805,6.029,CST-1368DR,4339,4657,11400,01.259,551
2023-03-28T08:16:02,42.805,6.029,CST-1368DR,4339,4644,11367,01.270,551
2023-03-28T08:19:04,42.805,6.029,CST-1368DR,4340,4651,11381,01.265,551
2023-03-28T08:22:05,42.805,6.029,CST-1368DR,4340,4658,11398,01.259,551
2023-03-28T08:25:07,42.805,6.029,CST-1368DR,4340,4661,11406,01.257,551
2023-03-28T08:28:08,42.805,6.029,CST-1368DR,4340,4661,11405,01.257,551
2023-03-28T08:31:13,42.805,6.029,CST-1368DR,4340,4661,11405,01.257,552
2023-03-28T08:34:15,42.805,6.029,CST-1368DR,4339,4641,11359,01.273,551
2023-03-28T08:37:16,42.805,6.029,CST-1368DR,4340,4656,11393,01.261,551
2023-03-28T08:40:18,42.805,6.029,CST-1368DR,4340,4650,11379,01.266,551
2023-03-28T08:43:19,42.805,6.029,CST-1368DR,4339,4655,11394,01.261,551
2023-03-28T08:46:21,42.805,6.029,CST-1368DR,4340,4656,11394,01.261,551
2023-03-28T08:49:22,42.805,6.029,CST-1368DR,4339,4648,11377,01.267,551
2023-03-28T08:52:24,42.805,6.029,CST-1368DR,4340,4663,11411,01.255,551
2023-03-28T08:55:26,42.805,6.029,CST-1368DR,4339,4655,11394,01.261,551
2023-03-28T08:58:27,42.805,6.029,CST-1368DR,4339,4650,11383,01.265,551
2023-03-28T09:01:29,42.805,6.029,CST-1368DR,4339,4656,11395,01.260,551
2023-03-28T09:04:30,42.805,6.029,CST-1368DR,4339,4653,11389,01.263,551
2023-03-28T09:07:32,42.805,6.029,CST-1368DR,4340,4664,11414,01.254,551
2023-03-28T09:10:34,42.805,6.029,CST-1368DR,4340,4667,11422,01.251,551
2023-03-28T09:13:35,42.805,6.029,CST-1368DR,4339,4662,11410,01.255,551
2023-03-28T09:16:37,42.805,6.029,CST-1368DR,4339,4667,11422,01.251,551
2023-03-28T09:19:38,42.805,6.029,CST-1368DR,4340,4663,11410,01.255,551
2023-03-28T09:22:40,42.805,6.029,CST-1368DR,4339,4664,11417,01.253,551
2023-03-28T09:25:41,42.805,6.029,CST-1368DR,4340,4659,11401,01.258,551
2023-03-28T09:28:43,42.805,6.029,CST-1368DR,4340,4661,11406,01.257,551
2023-03-28T09:31:45,42.805,6.029,CST-1368DR,4340,4668,11424,01.250,551
2023-03-28T09:34:46,42.805,6.029,CST-1368DR,4340,4664,11414,01.254,551
2023-03-28T09:37:48,42.805,6.029,CST-1368DR,4340,4664,11414,01.254,551
2023-03-28T09:40:49,42.805,6.029,CST-1368DR,4340,4661,11407,01.256,551
2023-03-28T09:43:51,42.805,6.029,CST-1368DR,4339,4661,11409,01.256,551
2023-03-28T09:46:52,42.805,6.029,CST-1368DR,4339,4643,11364,01.271,551
2023-03-28T09:49:54,42.805,6.029,CST-1368DR,4340,4662,11408,01.256,551
2023-03-28T09:52:56,42.805,6.029,CST-1368DR,4340,4654,11389,01.263,551
2023-03-28T09:55:57,42.805,6.029,CST-1368DR,4340,4658,11399,01.259,551
2023-03-28T09:58:59,42.805,6.029,CST-1368DR,4340,4662,11408,01.256,551
2023-03-28T10:02:00,42.805,6.029,CST-1368DR,4339,4662,11410,01.255,551
2023-03-28T10:05:02,42.805,6.029,CST-1368DR,4340,4653,11387,01.263,551
2023-03-28T10:08:04,42.805,6.029,CST-1368DR,4340,4665,11416,01.253,551
2023-03-28T10:11:05,42.805,6.029,CST-1368DR,4339,4652,11387,01.263,551
2023-03-28T10:14:07,42.805,6.029,CST-1368DR,4340,4673,11436,01.246,551
2023-03-28T10:17:08,42.805,6.029,CST-1368DR,4340,4659,11401,01.258,551
2023-03-28T10:20:10,42.805,6.029,CST-1368DR,4339,4652,11387,01.263,551
2023-03-28T10:23:11,42.805,6.029,CST-1368DR,4340,4663,11410,01.255,551
2023-03-28T10:26:13,42.805,6.029,CST-1368DR,4339,4667,11424,01.250,551
2023-03-28T10:29:15,42.805,6.029,CST-1368DR,4340,4670,11428,01.249,551
2023-03-28T10:32:16,42.805,6.029,CST-1368DR,4340,4669,11425,01.250,551
2023-03-28T10:35:18,42.805,6.029,CST-1368DR,4340,4674,11439,01.245,551
2023-03-28T10:38:19,42.805,6.029,CST-1368DR,4339,4660,11405,01.257,551
2023-03-28T10:41:21,42.805,6.029,CST-1368DR,4339,4652,11386,01.264,551
2023-03-28T10:44:22,42.805,6.029,CST-1368DR,4340,4672,11432,01.248,551
2023-03-28T10:47:24,42.805,6.029,CST-1368DR,4340,4698,11497,01.225,551
2023-03-28T10:50:26,42.805,6.029,CST-1368DR,4340,4677,11445,01.243,551
2023-03-28T10:53:27,42.805,6.029,CST-1368DR,4340,4677,11445,01.243,551
2023-03-28T10:56:29,42.805,6.029,CST-1368DR,4340,4667,11420,01.252,551
2023-03-28T10:59:30,42.805,6.029,CST-1368DR,4340,4689,11474,01.233,551
2023-03-28T11:02:32,42.805,6.029,CST-1368DR,4340,4685,11465,01.236,551
2023-03-28T11:05:34,42.805,6.029,CST-1368DR,4340,4678,11449,01.242,551
2023-03-28T11:08:35,42.805,6.029,CST-1368DR,4340,4685,11464,01.236,551
2023-03-28T11:11:37,42.805,6.029,CST-1368DR,4340,4683,11460,01.238,551
2023-03-28T11:14:38,42.805,6.029,CST-1368DR,4340,4688,11472,01.234,551
2023-03-28T11:17:40,42.805,6.029,CST-1368DR,4340,4690,11478,01.231,551
2023-03-28T11:20:41,42.805,6.029,CST-1368DR,4340,4697,11494,01.226,551
2023-03-28T11:23:43,42.805,6.029,CST-1368DR,4340,4691,11479,01.231,551
2023-03-28T11:26:45,42.805,6.029,CST-1368DR,4340,4696,11491,01.227,551
2023-03-28T11:29:46,42.805,6.029,CST-1368DR,4340,4690,11477,01.232,551
2023-03-28T11:32:48,42.805,6.029,CST-1368DR,4340,4694,11486,01.229,551
2023-03-28T11:35:49,42.805,6.029,CST-1368DR,4340,4686,11468,01.235,551
2023-03-28T11:38:51,42.805,6.029,CST-1368DR,4340,4691,11480,01.231,551
2023-03-28T11:41:52,42.805,6.029,CST-1368DR,4339,4676,11444,01.243,551
2023-03-28T11:44:54,42.805,6.029,CST-1368DR,4340,4690,11477,01.232,551
2023-03-28T11:47:56,42.805,6.029,CST-1368DR,4339,4676,11446,01.243,551
2023-03-28T11:50:57,42.805,6.029,CST-1368DR,4340,4675,11440,01.245,551
2023-03-28T11:53:59,42.805,6.029,CST-1368DR,4340,4678,11449,01.242,551
2023-03-28T11:57:00,42.805,6.029,CST-1368DR,4340,4695,11488,01.228,551
2023-03-28T12:00:02,42.805,6.029,CST-1368DR,4340,4677,11444,01.243,551
2023-03-28T12:03:04,42.805,6.029,CST-1368DR,4340,4682,11458,01.238,551
2023-03-28T12:06:05,42.805,6.029,CST-1368DR,4340,4691,11480,01.231,551
2023-03-28T12:09:07,42.805,6.029,CST-1368DR,4340,4686,11466,01.236,551
2023-03-28T12:12:08,42.805,6.029,CST-1368DR,4340,4701,11504,01.222,551
2023-03-28T12:15:10,42.805,6.029,CST-1368DR,4340,4694,11487,01.228,551
2023-03-28T12:18:11,42.805,6.029,CST-1368DR,4340,4696,11491,01.227,551
2023-03-28T12:21:13,42.805,6.029,CST-1368DR,4340,4699,11500,01.224,551
2023-03-28T12:24:15,42.805,6.029,CST-1368DR,4340,4691,11480,01.231,551
2023-03-28T12:27:16,42.805,6.029,CST-1368DR,4340,4690,11477,01.232,551
2023-03-28T12:30:18,42.805,6.029,CST-1368DR,4340,4692,11482,01.230,551
2023-03-28T12:33:20,42.805,6.029,CST-1368DR,4340,4700,11502,01.223,551
2023-03-28T12:36:22,42.805,6.029,CST-1368DR,4340,4687,11469,01.235,551
2023-03-28T12:39:23,42.805,6.029,CST-1368DR,4340,4702,11507,01.221,551
2023-03-28T12:42:25,42.805,6.029,CST-1368DR,4340,4697,11494,01.226,551
2023-03-28T12:45:26,42.805,6.029,CST-1368DR,4340,4699,11499,01.224,551
2023-03-28T12:48:28,42.805,6.029,CST-1368DR,4340,4687,11469,01.235,551
2023-03-28T12:51:29,42.805,6.029,CST-1368DR,4340,4697,11494,01.226,551
2023-03-28T12:54:31,42.805,6.029,CST-1368DR,4340,4699,11499,01.224,551
2023-03-28T12:57:33,42.805,6.029,CST-1368DR,4340,4700,11501,01.223,551
2023-03-28T13:00:34,42.805,6.029,CST-1368DR,4340,4699,11500,01.224,551
2023-03-28T13:03:36,42.805,6.029,CST-1368DR,4340,4703,11509,01.221,551
2023-03-28T13:06:37,42.805,6.029,CST-1368DR,4340,4705,11514,01.219,551
2023-03-28T13:09:39,42.805,6.029,CST-1368DR,4340,4694,11486,01.229,551
2023-03-28T13:12:41,42.805,6.029,CST-1368DR,4340,4693,11485,01.229,551
2023-03-28T13:15:42,42.805,6.029,CST-1368DR,4340,4687,11469,01.235,551
2023-03-28T13:18:44,42.805,6.029,CST-1368DR,4340,4683,11461,01.237,551
2023-03-28T13:21:45,42.805,6.029,CST-1368DR,4340,4696,11492,01.227,551
2023-03-28T13:24:47,42.805,6.029,CST-1368DR,4340,4694,11486,01.229,551
2023-03-28T13:27:48,42.805,6.029,CST-1368DR,4340,4700,11502,01.223,551
2023-03-28T13:30:50,42.805,6.029,CST-1368DR,4340,4703,11509,01.221,551
2023-03-28T13:33:52,42.805,6.029,CST-1368DR,4340,4695,11489,01.228,551
2023-03-28T13:36:53,42.805,6.029,CST-1368DR,4340,4701,11504,01.222,551
2023-03-28T13:39:55,42.805,6.029,CST-1368DR,4340,4690,11477,01.232,551
2023-03-28T13:42:56,42.805,6.029,CST-1368DR,4340,4693,11483,01.230,551
2023-03-28T13:45:58,42.805,6.029,CST-1368DR,4340,4681,11455,01.239,551
2023-03-28T13:48:59,42.805,6.029,CST-1368DR,4340,4699,11499,01.224,551
2023-03-28T13:52:01,42.805,6.029,CST-1368DR,4340,4703,11509,01.221,551
2023-03-28T13:55:03,42.805,6.029,CST-1368DR,4340,4692,11482,01.230,551
2023-03-28T13:58:04,42.805,6.029,CST-1368DR,4340,4703,11509,01.221,551
2023-03-28T14:01:06,42.805,6.029,CST-1368DR,4340,4669,11425,01.250,551
2023-03-28T14:04:07,42.805,6.029,CST-1368DR,4340,4688,11472,01.234,551
2023-03-28T14:07:09,42.805,6.029,CST-1368DR,4339,4666,11421,01.251,551
2023-03-28T14:10:10,42.805,6.029,CST-1368DR,4340,4686,11467,01.235,551
2023-03-28T14:13:12,42.805,6.029,CST-1368DR,4340,4680,11453,01.240,551
2023-03-28T14:16:14,42.805,6.029,CST-1368DR,4340,4677,11446,01.243,551
2023-03-28T14:19:15,42.805,6.029,CST-1368DR,4340,4673,11436,01.246,551
2023-03-28T14:22:17,42.805,6.029,CST-1368DR,4340,4679,11451,01.241,551
2023-03-28T14:25:18,42.805,6.029,CST-1368DR,4340,4689,11475,01.233,551
2023-03-28T14:28:20,42.805,6.029,CST-1368DR,4340,4674,11438,01.245,551
2023-03-28T14:31:22,42.805,6.029,CST-1368DR,4339,4644,11368,01.270,551
2023-03-28T14:34:24,42.805,6.029,CST-1368DR,4339,4651,11383,01.265,551
2023-03-28T14:37:25,42.805,6.029,CST-1368DR,4339,4627,11326,01.285,551
2023-03-28T14:40:27,42.805,6.029,CST-1368DR,4339,4649,11380,01.266,551
2023-03-28T14:43:29,42.805,6.029,CST-1368DR,4339,4656,11397,01.260,551
2023-03-28T14:46:30,42.805,6.029,CST-1368DR,4339,4656,11397,01.260,551
2023-03-28T14:49:32,42.805,6.029,CST-1368DR,4339,4667,11424,01.250,551
2023-03-28T14:52:33,42.805,6.029,CST-1368DR,4339,4658,11401,01.258,551
2023-03-28T14:55:35,42.805,6.029,CST-1368DR,4339,4665,11417,01.253,551
2023-03-28T14:58:36,42.805,6.029,CST-1368DR,4339,4666,11422,01.251,551
2023-03-28T15:01:38,42.805,6.029,CST-1368DR,4339,4666,11421,01.251,551
2023-03-28T15:04:40,42.805,6.029,CST-1368DR,4340,4677,11446,01.243,551
2023-03-28T15:07:41,42.805,6.029,CST-1368DR,4340,4673,11436,01.246,551
2023-03-28T15:10:43,42.805,6.029,CST-1368DR,4340,4679,11450,01.241,551
2023-03-28T15:13:44,42.805,6.029,CST-1368DR,4340,4686,11466,01.236,551
2023-03-28T15:16:46,42.805,6.029,CST-1368DR,4340,4677,11446,01.243,551
2023-03-28T15:19:48,42.805,6.029,CST-1368DR,4339,4668,11425,01.250,551
2023-03-28T15:22:49,42.805,6.029,CST-1368DR,4340,4675,11441,01.244,551
2023-03-28T15:25:51,42.805,6.029,CST-1368DR,4339,4673,11439,01.245,551
2023-03-28T15:28:52,42.805,6.029,CST-1368DR,4340,4669,11426,01.250,551
2023-03-28T15:31:54,42.805,6.029,CST-1368DR,4339,4657,11400,01.259,551
2023-03-28T15:34:55,42.805,6.029,CST-1368DR,4339,4665,11417,01.253,551
2023-03-28T15:37:57,42.805,6.029,CST-1368DR,4339,4663,11414,01.254,551
2023-03-28T15:40:59,42.805,6.029,CST-1368DR,4340,4665,11416,01.253,551
2023-03-28T15:44:00,42.805,6.029,CST-1368DR,4339,4672,11436,01.246,551
2023-03-28T15:47:02,42.805,6.029,CST-1368DR,4339,4665,11418,01.252,551
2023-03-28T15:50:03,42.805,6.029,CST-1368DR,4339,4663,11413,01.254,551
2023-03-28T15:53:05,42.805,6.029,CST-1368DR,4339,4669,11427,01.249,551
2023-03-28T15:56:07,42.805,6.029,CST-1368DR,4339,4678,11451,01.241,551
2023-03-28T15:59:08,42.805,6.029,CST-1368DR,4339,4661,11409,01.256,551
2023-03-28T16:02:10,42.805,6.029,CST-1368DR,4339,4665,11417,01.253,551
2023-03-28T16:05:11,42.805,6.029,CST-1368DR,4339,4662,11411,01.255,551
2023-03-28T16:08:13,42.805,6.029,CST-1368DR,4339,4670,11430,01.248,551
2023-03-28T16:11:14,42.805,6.029,CST-1368DR,4339,4666,11421,01.251,551
2023-03-28T16:14:16,42.805,6.029,CST-1368DR,4339,4669,11427,01.249,551
2023-03-28T16:17:18,42.805,6.029,CST-1368DR,4339,4669,11429,01.249,551
2023-03-28T16:20:19,42.805,6.029,CST-1368DR,4339,4661,11408,01.256,551
2023-03-28T16:23:21,42.805,6.029,CST-1368DR,4339,4662,11411,01.255,551
2023-03-28T16:26:22,42.805,6.029,CST-1368DR,4339,4676,11445,01.243,551
2023-03-28T16:29:24,42.805,6.029,CST-1368DR,4339,4680,11454,01.240,551
2023-03-28T16:32:25,42.805,6.029,CST-1368DR,4340,4688,11473,01.233,551
2023-03-28T16:35:27,42.805,6.029,CST-1368DR,4339,4687,11471,01.234,551
2023-03-28T16:38:28,42.805,6.029,CST-1368DR,4340,4698,11498,01.224,551